Location: Newark
(34.6283°N, 36.0776°E)
Time: 01:41:38
(UTC+00:00)

Transit 2A Rocket - All Passes

Search period start: 24 October 2019 00:00
Search period end: 03 November 2019 00:00
Orbit: 594 x 909 km, 66.7° (Epoch: 23 October)

Date Brightness Start Highest point End Pass type
(mag) Time Alt. Az. Time Alt. Az. Time Alt. Az.
24 Oct - 00:39:07 10° S 00:44:07 44° ESE 00:48:43 10° NE visible
24 Oct - 02:23:06 10° W 02:26:46 20° NW 02:30:14 10° N visible
24 Oct - 09:27:26 10° NNE 09:29:35 13° NE 09:31:46 10° E daylight
24 Oct - 11:08:10 10° NW 11:12:22 51° WSW 11:16:43 10° S daylight
24 Oct - 23:57:34 10° SSE 00:01:43 24° ESE 00:05:35 10° ENE visible
25 Oct - 01:39:24 10° SW 01:44:06 34° WNW 01:48:26 10° N visible
25 Oct - 10:25:35 10° NNW 10:29:54 76° ENE 10:34:23 10° SSE daylight
25 Oct - 23:17:21 10° SE 23:19:23 12° ESE 23:21:22 10° E night (unlit)
26 Oct - 00:56:21 10° SW 01:01:31 64° WNW 01:06:15 10° NNE visible
26 Oct - 09:43:20 10° N 09:47:21 37° ENE 09:51:29 10° SE daylight
26 Oct - 11:26:51 10° WNW 11:29:33 16° WSW 11:32:18 10° SW daylight
27 Oct - 00:13:49 10° SSW 00:19:01 68° ESE 00:23:46 10° NNE visible
27 Oct - 01:59:28 10° W 02:01:53 13° NW 02:04:14 10° NNW visible
27 Oct - 09:01:29 10° N 09:04:41 20° NE 09:07:57 10° ESE daylight
27 Oct - 10:43:21 10° NW 10:47:13 32° WSW 10:51:14 10° S daylight
27 Oct - 23:31:50 10° S 23:36:34 35° ESE 23:40:57 10° NE night (unlit)
28 Oct - 01:15:05 10° WSW 01:19:07 23° NW 01:22:56 10° N visible
28 Oct - 08:20:45 10° NE 08:21:53 11° NE 08:23:01 10° ENE daylight
28 Oct - 10:00:30 10° NNW 10:04:48 67° WSW 10:09:17 10° SSE daylight
28 Oct - 22:50:37 10° SSE 22:54:12 19° ESE 22:57:35 10° ENE night (unlit)
29 Oct - 00:31:37 10° SW 00:36:29 42° WNW 00:40:58 10° NNE visible
29 Oct - 09:18:02 10° NNW 09:22:18 59° ENE 09:26:45 10° SE daylight
29 Oct - 23:48:45 10° SSW 23:53:56 79° WNW 23:58:41 10° NNE night (unlit)
30 Oct - 08:35:54 10° N 08:39:43 30° ENE 08:43:39 10° ESE daylight
30 Oct - 10:18:47 10° WNW 10:22:02 21° WSW 10:25:23 10° SSW daylight
30 Oct - 23:06:24 10° S 23:11:27 54° ESE 23:16:06 10° NE night (unlit)
31 Oct - 00:51:09 10° W 00:54:12 16° NW 00:57:09 10° NNW night (unlit)
31 Oct - 07:54:15 10° NNE 07:57:01 16° NE 07:59:49 10° E daylight
31 Oct - 09:35:35 10° NW 09:39:40 41° WSW 09:43:56 10° S daylight
31 Oct - 22:24:39 10° SSE 22:29:03 28° ESE 22:33:08 10° NE night (unlit)
01 Nov - 00:07:09 10° WSW 00:11:29 28° WNW 00:15:33 10° N night (unlit)
01 Nov - 08:52:53 10° NNW 08:57:14 86° WSW 09:01:46 10° SSE daylight
01 Nov - 21:43:52 10° SE 21:46:41 15° ESE 21:49:24 10° ENE night (unlit)
01 Nov - 23:23:54 10° SW 23:28:53 52° WNW 23:33:28 10° NNE night (unlit)
02 Nov - 08:10:31 10° NNW 08:14:42 46° ENE 08:19:03 10° SE daylight
02 Nov - 09:54:47 10° W 09:56:49 13° WSW 09:58:54 10° SW daylight
02 Nov - 22:41:12 10° SSW 22:46:22 83° ESE 22:51:06 10° NNE night (unlit)
